RH
32 31 28 25 25 29 30 32 36 40 43 48 51 51 51 48 45 46 46 44 44 46 43 43 46 42 40 39 38 38 40 41 42 42 43 44 46 45 47 50 50 51 53
28 28 23 23 24 25 27 29 33 38 40 43 47 48 49 51 48 46 44 46 46 45 44 41 44 45 39 39 39 40 42 43 42 42 41 43 43 46 45 49 49 50 50
30 25 21 22 23 23 24 26 30 33 36 38 41 44 45 44 45 52 54 50 46 46 47 47 45 43 40 37 36 37 41 43 44 45 42 44 45 48 44 49 50 48 52
26 25 20 21 22 22 23 25 27 30 33 35 37 39 38 43 41 42 46 48 48 47 46 45 46 44 42 41 38 35 37 39 39 39 43 41 43 47 46 50 51 52 52
24 23 19 19 20 22 24 25 26 28 30 31 35 40 39 35 35 36 39 42 47 47 45 45 42 41 41 41 44 48 51 53 53 49 47 42 43 44 45 56 56 53 56
20 19 19 18 19 20 23 27 27 27 28 29 31 34 37 41 41 39 36 40 43 44 43 44 47 47 48 48 45 45 47 46 46 46 43 38 45 49 47 48 52 54 56
17 17 17 18 20 19 21 23 25 26 27 26 27 29 29 32 34 37 33 32 37 38 40 40 42 44 45 45 43 42 41 42 42 43 42 34 36 44 46 49 51 55 58
18 18 17 19 19 18 19 21 23 24 24 24 24 25 28 29 30 31 31 28 28 35 37 41 44 43 43 42 42 42 40 37 40 41 42 38 38 36 36 39 43 48 50
18 14 16 18 18 17 17 19 21 22 22 23 23 23 23 24 25 28 29 29 29 34 38 39 40 41 42 41 40 38 35 34 37 38 41 38 40 44 42 39 36 36 36
18 15 16 16 16 16 16 17 19 20 21 21 20 21 22 23 23 25 27 29 33 38 40 40 38 38 37 38 39 35 36 37 39 42 41 41 40 44 47 46 45 43 41
16 17 14 15 15 15 16 17 18 20 21 20 19 20 22 23 25 24 26 29 33 37 36 36 35 35 34 34 35 34 34 36 35 40 42 45 43 44 45 46 47 46 46
15 16 14 15 14 13 14 16 18 19 18 19 20 22 23 26 27 26 26 29 32 34 35 36 35 36 35 33 31 32 32 34 35 38 40 45 44 44 43 43 44 45 44
16 16 15 15 15 15 14 14 15 16 17 19 21 24 26 28 27 28 28 29 32 33 34 34 34 35 34 32 31 29 30 30 29 32 35 38 38 38 40 41 40 41 42
18 19 17 16 16 17 16 15 15 16 17 19 21 25 27 28 30 33 31 30 29 30 31 31 30 29 30 30 30 29 28 29 30 29 31 33 34 35 36 37 37 37 37
20 21 21 20 18 18 19 19 20 22 23 22 25 25 25 27 30 28 28 29 28 27 25 26 25 26 27 27 28 28 27 26 27 28 29 28 28 29 31 31 33 33 33
22 22 23 22 20 19 19 21 24 26 26 25 24 22 24 24 26 27 27 25 24 23 23 22 21 21 20 21 23 26 27 27 26 27 27 26 27 26 26 27 27 26 26
22 23 23 24 23 21 22 23 26 27 27 25 25 22 22 24 24 24 23 23 23 23 22 22 21 21 21 21 21 22 23 24 24 24 25 26 26 25 24 22 21 21 22
23 24 26 26 25 24 24 25 25 26 27 27 27 25 24 24 24 23 23 23 23 23 22 21 21 21 22 22 22 23 24 25 25 26 26 27 27 25 23 22 21 20 20
25 27 28 29 28 27 27 28 27 27 28 27 25 24 24 24 23 23 23 23 24 24 23 22 23 23 23 23 24 24 24 25 26 27 29 30 28 27 26 24 24 24 26
28 30 31 30 30 31 30 30 29 28 27 27 25 25 25 25 25 25 25 25 25 25 25 25 26 26 27 27 28 28 28 29 31 33 33 33 33 31 29 28 27 28 29
30 31 32 33 33 33 32 30 29 27 27 28 27 28 28 28 27 27 27 28 28 28 29 30 30 31 31 32 33 33 33 35 37 40 40 40 36 33 32 32 32 32 34
30 33 35 35 35 33 31 30 30 30 30 32 30 30 29 29 29 30 30 31 31 31 32 34 35 36 37 39 41 42 43 44 45 47 48 46 41 40 40 37 36 36 35
32 32 33 33 32 32 32 34 34 36 35 33 31 31 32 32 32 32 33 34 34 35 37 38 40 42 44 45 47 49 50 52 53 54 55 53 50 49 45 42 41 40 39
29 31 32 31 31 33 34 35 36 35 34 32 31 32 34 34 35 35 35 35 36 37 38 41 43 46 49 50 51 52 54 55 58 58 59 56 54 48 48 46 44 43 42
27 29 32 32 31 32 35 35 37 38 35 34 34 35 35 36 37 38 38 38 38 39 41 42 44 48 50 52 52 54 55 56 63 61 59 55 53 53 52 53 52 50 46
27 28 28 28 29 32 37 38 39 38 36 36 37 38 39 40 40 40 40 39 40 42 44 45 47 49 52 54 55 57 58 62 65 67 67 63 59 57 56 54 53 54 49